Wind_Speed
37 34 25 25 24 22 22 26 24 22 22 23 23 23 23 21 21 23 22 19 22 25 24 20 22 25 24 26 27 25 23 24
39 37 25 27 25 23 24 27 24 20 22 23 22 22 23 22 22 22 23 23 26 27 32 23 18 21 26 25 27 28 27 25
40 38 29 28 26 25 27 27 24 22 23 24 22 21 22 22 23 25 23 23 23 25 23 23 23 24 24 26 29 30 28 26
41 37 30 29 28 27 27 26 24 24 24 23 22 23 25 24 23 26 24 25 26 24 24 25 30 27 25 23 27 29 30 28
39 36 33 31 29 29 28 25 24 25 25 24 25 26 30 27 26 28 26 26 26 25 25 24 23 19 27 26 25 27 31 27
39 37 34 32 31 31 27 26 25 26 26 28 27 29 32 30 28 30 27 28 27 27 27 24 24 18 27 28 31 28 31 31
38 36 34 32 31 31 27 28 26 27 28 30 30 32 34 32 30 32 29 28 27 29 25 25 29 27 24 26 34 32 31 29
39 34 32 33 31 32 29 29 28 30 30 32 33 34 34 33 32 32 30 29 27 29 27 27 27 24 23 27 34 34 32 30
42 34 31 33 32 33 31 30 31 31 33 33 35 34 33 33 31 29 28 29 28 29 28 28 27 31 25 28 37 33 31 29
41 38 34 31 33 33 32 33 32 32 33 34 35 34 31 30 29 27 25 29 28 28 29 29 30 30 27 30 38 39 38 34
42 38 38 33 35 34 34 33 33 32 33 33 33 31 29 28 28 26 25 27 28 29 29 28 30 29 24 29 39 42 35 27
42 38 37 35 33 34 34 33 34 33 33 32 32 29 27 29 27 24 24 26 26 27 31 29 31 25 26 25 37 41 33 32
40 38 34 31 27 32 33 33 34 34 34 32 29 26 27 29 26 24 23 26 26 26 30 25 25 26 28 27 35 45 32 29
38 37 34 30 25 32 33 33 34 34 34 31 28 25 29 29 25 24 25 27 27 28 31 33 25 27 28 31 30 32 32 27
36 34 34 33 27 30 32 34 35 32 32 25 26 27 29 28 24 25 26 26 29 32 28 34 32 29 32 35 29 25 28 31
36 39 36 33 30 28 32 35 34 32 31 27 28 27 27 27 24 25 27 28 28 33 29 35 33 31 36 35 32 35 33 35
39 36 38 33 33 28 35 35 33 32 30 29 26 28 27 25 24 26 27 28 30 29 33 27 32 32 31 32 33 31 36 36
37 41 36 32 30 29 36 37 29 30 29 28 27 29 26 24 25 27 29 29 30 29 31 28 29 35 37 36 34 34 33 34
37 37 31 29 31 34 39 36 28 30 29 26 28 27 27 25 26 29 29 30 31 35 31 30 30 38 39 35 35 35 38 36
34 33 28 31 33 38 38 31 29 28 29 28 25 26 25 26 29 29 30 29 33 33 31 34 31 39 37 40 39 34 36 37
Wind_Direction
264 259 254 257 256 263 276 285 287 290 295 298 303 300 298 294 289 288 290 279 275 273 269 250 248 243 240 231 224 225 231 236
266 262 258 258 257 262 272 282 283 287 293 300 299 299 300 294 290 286 285 284 283 275 277 245 239 243 240 233 231 224 225 233
267 264 258 256 256 261 268 277 279 285 294 298 294 300 302 297 290 286 284 282 280 287 296 263 251 246 242 237 234 231 226 231
264 264 258 250 256 260 264 272 278 287 293 295 295 299 300 299 291 286 283 278 273 279 292 262 242 248 248 237 240 233 227 227
264 261 259 251 255 256 260 269 275 285 293 292 294 298 298 296 291 282 280 278 270 268 275 271 270 252 246 237 223 229 228 223
260 257 257 255 253 256 257 263 272 281 288 291 293 296 298 291 284 277 276 273 268 262 266 279 285 245 236 249 229 220 225 223
259 255 253 250 250 254 257 263 272 279 284 290 291 292 294 287 278 274 271 267 262 260 262 267 275 256 250 235 225 225 230 230
256 254 252 247 246 249 253 263 271 278 283 288 291 292 288 282 274 275 272 264 259 255 254 258 261 251 244 233 222 230 232 230
256 250 244 247 245 242 251 260 268 276 280 286 286 288 279 274 273 272 268 262 258 254 253 253 250 239 229 237 219 232 228 218
256 252 238 241 243 242 250 257 267 275 279 282 282 284 274 272 275 268 264 264 260 254 253 252 252 232 233 238 216 225 231 217
250 247 238 235 240 246 250 257 268 276 278 278 280 275 274 276 274 266 264 266 267 260 252 258 238 231 240 229 214 225 229 234
246 241 236 240 235 247 256 261 267 273 277 277 275 268 274 278 272 266 267 274 272 266 253 249 231 230 230 219 214 221 225 236
238 237 239 243 240 250 255 262 264 264 272 273 266 266 273 276 271 269 272 277 267 264 247 246 239 221 213 216 215 224 217 230
231 235 240 237 235 249 253 258 262 268 272 262 261 267 273 274 269 272 278 274 263 264 248 235 227 222 222 227 223 221 220 215
232 239 243 241 239 247 253 259 267 274 277 255 256 260 272 271 271 278 281 269 261 261 250 245 224 229 230 230 227 219 226 231
243 242 242 245 248 251 256 260 266 268 262 250 255 261 264 264 271 279 278 264 264 258 257 248 243 232 221 227 219 219 228 238
236 240 244 247 250 245 254 261 266 264 252 243 252 259 258 262 273 277 275 268 261 262 259 245 230 227 222 218 224 229 229 232
237 240 244 245 248 247 257 261 261 256 245 244 250 251 255 259 269 274 275 270 262 253 255 262 242 226 224 228 226 228 228 235
247 240 241 240 246 247 254 258 251 247 242 244 245 250 256 261 266 269 270 267 262 259 250 247 240 226 227 226 227 236 236 234
247 252 245 243 243 244 252 250 243 243 242 242 245 250 259 263 266 270 270 267 268 253 259 245 238 232 225 232 228 238 234 227
Height
5823 5824 5826 5825 5824 5824 5824 5824 5824 5823 5821 5820 5819 5818 5816 5815 5814 5812 5812 5814 5813 5811 5810 5810 5811 5812 5814 5818 5819 5823 5825 5828
5815 5816 5819 5819 5818 5819 5819 5818 5819 5818 5816 5815 5815 5813 5812 5811 5809 5809 5809 5810 5809 5807 5805 5804 5805 5809 5811 5815 5817 5818 5821 5824
5807 5809 5812 5812 5812 5813 5813 5813 5814 5813 5811 5811 5810 5809 5808 5806 5806 5805 5805 5805 5805 5805 5802 5803 5804 5806 5808 5810 5812 5815 5819 5821
5801 5802 5805 5805 5806 5806 5807 5807 5807 5807 5806 5805 5805 5804 5803 5802 5801 5800 5801 5800 5800 5800 5799 5799 5801 5802 5804 5805 5808 5811 5815 5817
5795 5796 5796 5798 5799 5800 5801 5800 5800 5800 5800 5799 5799 5798 5797 5796 5796 5795 5795 5795 5796 5796 5795 5794 5797 5796 5800 5801 5803 5806 5809 5813
5787 5789 5790 5790 5791 5793 5794 5794 5794 5793 5794 5793 5792 5791 5791 5789 5789 5788 5788 5788 5789 5790 5790 5789 5790 5790 5794 5797 5800 5802 5804 5808
5778 5780 5782 5783 5784 5786 5787 5786 5787 5787 5787 5787 5785 5784 5782 5781 5781 5780 5781 5780 5781 5782 5783 5784 5784 5786 5789 5789 5793 5797 5800 5805
5768 5772 5772 5774 5777 5778 5780 5779 5780 5780 5780 5779 5777 5776 5773 5773 5773 5773 5773 5773 5774 5775 5777 5779 5778 5780 5783 5784 5789 5792 5796 5800
5755 5762 5764 5765 5768 5771 5772 5772 5773 5773 5772 5770 5769 5768 5765 5765 5767 5766 5765 5765 5767 5768 5770 5771 5773 5774 5776 5777 5782 5786 5790 5794
5746 5749 5756 5758 5760 5762 5764 5765 5766 5765 5764 5762 5760 5759 5758 5758 5759 5759 5759 5758 5759 5761 5762 5764 5765 5768 5769 5771 5776 5779 5783 5789
5735 5740 5745 5750 5752 5755 5756 5757 5758 5758 5756 5755 5753 5751 5752 5752 5752 5751 5752 5751 5751 5753 5754 5756 5758 5761 5763 5765 5770 5773 5779 5782
5726 5731 5736 5741 5745 5746 5748 5750 5749 5748 5748 5747 5746 5745 5746 5745 5745 5745 5745 5744 5745 5745 5747 5748 5751 5755 5757 5761 5765 5767 5776 5777
5718 5723 5728 5732 5738 5740 5741 5742 5741 5740 5738 5738 5738 5739 5739 5738 5738 5739 5739 5738 5738 5739 5740 5742 5745 5749 5752 5756 5760 5762 5770 5773
5710 5715 5720 5724 5731 5731 5733 5734 5733 5732 5732 5732 5731 5732 5731 5731 5733 5732 5731 5731 5732 5734 5735 5735 5739 5744 5748 5751 5754 5758 5764 5769
5702 5707 5711 5716 5721 5722 5724 5725 5724 5725 5725 5725 5725 5725 5725 5725 5726 5725 5724 5725 5727 5728 5730 5731 5733 5737 5742 5746 5750 5755 5761 5764
5693 5699 5703 5707 5711 5715 5715 5715 5716 5717 5717 5716 5716 5719 5719 5719 5719 5718 5718 5719 5721 5723 5724 5725 5726 5731 5734 5738 5745 5750 5754 5758
5685 5690 5694 5699 5702 5707 5705 5706 5708 5708 5708 5709 5710 5711 5712 5712 5712 5712 5712 5713 5714 5715 5718 5718 5721 5724 5729 5735 5738 5743 5747 5752
5675 5682 5687 5692 5693 5696 5695 5696 5700 5699 5701 5702 5704 5704 5705 5705 5705 5705 5706 5706 5706 5708 5710 5712 5714 5718 5723 5729 5733 5738 5743 5746
5669 5671 5680 5682 5684 5686 5686 5687 5690 5691 5694 5695 5697 5697 5697 5697 5698 5699 5699 5698 5699 5699 5701 5705 5707 5712 5717 5722 5727 5730 5734 5739
5661 5665 5671 5672 5674 5676 5677 5680 5681 5684 5687 5688 5689 5690 5690 5690 5691 5691 5690 5690 5691 5692 5693 5696 5700 5705 5710 5715 5719 5723 5726 5731